Regional Weather Roundup
Issued by NWS Newport/Morehead, NC

Current Version | Previous Version | Graphics & Text | Print | Product List | Glossary Off
Versions: 1 2 3 4 5 6 7 8 9 10 11 12 13 14 15 16 17 18 19 20 21 22 23 24 25 26 27 28 29 30 31 32 33 34 35 36 37 38 39 40 41 42 43 44 45 46 47 48 49 50

000
ASUS42 KMHX 270013
RWRMHX
WEATHER ROUNDUP FOR EASTERN NORTH CAROLINA
NATIONAL WEATHER SERVICE NEWPORT/MOREHEAD CITY NC
800 PM EDT FRI AUG 26 2016

NOTE: "FAIR" INDICATES FEW OR NO CLOUDS BELOW 12,000 FEET
WITH NO SIGNIFICANT WEATHER AND/OR OBSTRUCTIONS TO VISIBILITY

NCZ015>017-031-032-045>047-102-103-270100-
NORTH COAST

CITY           SKY/WX    TMP DP  RH WIND       PRES   REMARKS
EDENTON        CLEAR     87  74  65 S7        30.04R
ELIZABETH CITY CLEAR     84  75  74 SE5       30.03S
KITTY HAWK     CLEAR     82  76  82 S3        30.03S
MANTEO         CLEAR     82  74  76 SW10      30.05R

$$

NCZ045>047-081-094-103-104-270100-
CENTRAL COAST

CITY           SKY/WX    TMP DP  RH WIND       PRES   REMARKS
FRISCO         CLEAR     82  70  66 S7        30.05S

$$

NCZ095-097-098-100-101-270100-
SOUTHERN COAST

CITY           SKY/WX    TMP DP  RH WIND       PRES   REMARKS
BEAUFORT       CLEAR     80  71  74 S5        30.06R
CEDAR ISLAND   NOT AVBL
JACKSONVILLE   CLEAR     81  72  74 S8        30.05R
PINEY ISLAND   NOT AVBL
WILMINGTON     CLEAR     81  71  71 SE6       30.05S


$$

NCZ011>013-027>030-043-044-078>080-089-090>093-098-270100-
COASTAL PLAIN

CITY           SKY/WX    TMP DP  RH WIND       PRES   REMARKS
AHOSKIE        CLEAR     83  76  81 CALM      30.03S
CLINTON        CLEAR     85  76  74 CALM      30.04R
ELIZABETHTOWN  CLEAR     85  74  69 SE3       30.04S
GOLDSBORO      CLEAR     87  76  68 SE3       30.02R
GREENVILLE     CLEAR     86  75  70 S3        30.05S
HAVELOCK       CLEAR     80  71  74 S6        30.06S
KENANSVILLE    CLEAR     82  75  78 CALM      30.05R
KINSTON        CLEAR     88  73  62 S5        30.04S
NEW BERN       CLEAR     82  74  76 S5        30.06R
RICHLANDS      CLEAR     82  75  79 S5        30.05S
ROCKY MOUNT    CLEAR     84  76  76 CALM      30.03R
WASHINGTON     CLEAR     83  75  77 SE5       30.03S
WHITEVILLE     CLEAR     84  73  71 S3        30.04S

$$

AMZ130-135-150-152-154-156-158-170-250-252-270-ANZ085-086-088-633-658-670-270100-
MARINE OBSERVATIONS

STATION/POSITION TIME  TEMP    WIND        PRES    WAVE   SWELL
                       AIR SEA DIR/SP/G            HT/PER HT/PER
                 (UTC) (F)     (DEG/KT/KT) (MB)    (FT/S) (FT/S)
CHESAPEAKE LIGHT NOT AVBL
64 E VA BEACH    2350   81 81  210/ 10/ 10 1017.0    2/ 8   2/ 8
DUCK             2300   82 78  150/  7/  8 1016.4
2 E DUCK         2311      80                N/A     2/ 8
OREGON INLET     2300   82 83  170/  7/  9 1017.2
13E OREGON INLT  2300      79                N/A     2/ 8   2/ 8
HATTERAS CG      2300   83 82  160/  4/  4 1017.5
DIAMOND BUOY     2350   82 86  140/  4/  6 1017.9    2/ 8   2/ 8
CAPE LOOKOUT     0000   82     140/  7/  9 1017.7
BEAUFORT LAB     2300   83 82  150/  5/  6 1017.0
30 SE NEW RVR IN 2308   82 85  120/  6/ 10 1017.6
30 SE NEW RVR IN 2325      85                N/A     2/ 6
27 SE WRIGHTSVLE 2308   83 84  110/  6/ 10 1017.6
5 SE WRIGHTSVLE  2308   83 84  130/  6/  8 1018.5
225 S CAPE HAT   2350   82 84   80/ 16/ 19 1016.1    6/11   3/11
41 SE CHARLESTON 2350   83 83   70/ 12/ 14 1016.2    3/ 4   2/ 8

$$




USA.gov is the U.S. government's official web portal to all federal, state and local government web resources and services.